Torna al catalogo

THORAD AGENA D DEB

AttivoPO
NORAD 4716·DEBRIS·🇺🇸 United States

Lanciato Apr 8, 1970 da Vandenberg Space Force Base

Loading…

Prossimi Passaggi (prossime 24 ore)

TLE

AggiornatoSource: Space-Track

Epoca: Sep 14, 2026, 09:40 UTC

1 04716U 70025CA  26257.40313913  .00001338  00000-0  83232-3 0  9994
2 04716  99.9782  58.7498 0005365  83.6258 306.4940 14.07049345838053

Traccia THORAD AGENA D DEB in tempo reale con AllMySat

Download on the App Store